Lid_Strength_Index
9 12 13 12 13 13 14 14 15 13 12 14 14 14 13 14 15 17 17 17 17 16 15 15 14 14 14 14 13 12 12 11 10 10 10 10 9 7 6 5 4 3 2 3
10 12 12 12 12 12 13 15 15 14 12 14 15 15 15 15 16 16 17 17 17 17 16 15 14 14 14 14 13 12 11 10 10 10 10 9 9 7 6 3 3 2 3 3
13 11 11 12 13 13 14 15 16 16 14 14 15 17 17 16 16 16 16 16 16 17 16 16 15 15 14 13 13 11 11 10 10 9 9 9 8 7 5 5 3 2 3 3
13 12 12 13 13 13 16 15 15 16 18 20 16 22 18 18 18 17 17 18 18 17 16 15 15 14 14 13 12 11 11 10 9 8 9 9 9 8 6 6 4 3 1 3
13 14 14 14 14 13 15 15 16 16 18 19 19 21 19 18 19 18 18 17 18 17 17 16 15 14 13 12 12 11 11 10 9 10 10 10 8 7 7 6 5 4 3 4
13 12 13 14 12 13 14 16 16 17 18 23 19 20 20 19 17 18 18 18 17 17 17 15 14 13 13 12 12 11 11 11 10 11 12 12 11 10 9 8 7 6 4 5
13 14 13 13 15 14 15 18 23 23 23 23 19 22 19 19 18 18 18 18 18 17 16 16 15 14 13 13 12 12 12 13 13 13 13 12 12 11 11 10 8 6 5 5
16 17 14 13 15 18 17 19 23 26 25 24 21 24 20 18 17 17 17 17 17 17 16 15 14 14 13 13 13 13 13 13 13 14 13 13 13 13 12 11 10 10 6 5
16 16 15 16 16 16 18 21 18 22 27 28 23 20 18 18 18 18 18 18 18 17 16 15 14 14 13 13 13 13 14 14 14 14 14 14 14 14 13 12 11 11 9 6
15 18 16 18 17 18 19 17 22 22 30 30 23 22 21 20 19 19 19 19 18 17 16 15 15 14 13 13 13 13 14 15 15 14 15 15 15 15 14 13 13 12 10 9
16 16 19 18 20 20 21 22 21 21 22 26 29 24 19 19 18 20 19 18 17 17 16 15 14 13 13 13 13 14 15 15 16 15 16 16 17 16 15 15 14 12 11 10
16 17 21 19 19 19 20 20 20 25 25 24 24 24 17 17 18 18 18 17 17 16 16 15 14 14 14 14 14 15 15 16 16 15 17 17 18 16 16 15 14 13 13 10
17 19 21 21 22 20 22 21 21 21 22 24 25 24 17 17 18 18 19 18 17 16 15 15 15 15 15 15 15 16 16 16 15 16 18 19 18 17 16 16 16 15 14 14
14 18 19 19 18 20 23 22 21 21 24 22 23 21 18 17 17 19 18 18 17 16 15 15 15 15 15 15 16 17 17 16 16 17 19 20 19 19 18 16 16 17 15 15
17 21 20 19 20 20 20 21 22 22 21 23 21 21 18 18 19 20 19 17 16 16 15 16 16 16 16 17 17 18 18 17 17 18 20 20 19 18 18 19 17 17 16 15
17 22 19 22 21 21 23 22 21 21 20 21 20 21 15 16 18 19 17 17 17 16 17 16 16 17 17 17 18 18 19 18 17 19 21 20 19 19 20 19 19 17 16 16
19 21 23 24 22 22 25 22 21 20 19 19 22 19 17 18 18 19 18 17 17 17 17 17 17 17 18 19 18 20 20 19 19 20 21 21 21 21 20 19 20 19 18 17
19 21 21 24 23 27 20 21 21 21 19 18 18 17 18 19 18 17 16 18 18 17 17 18 18 19 19 19 19 20 20 20 19 21 22 22 22 22 21 21 20 19 19 18
17 20 23 25 25 22 20 20 22 22 22 18 18 17 18 18 18 18 17 17 18 18 18 18 18 18 19 20 20 21 21 20 20 21 23 23 22 23 23 24 21 20 20 19
18 18 21 23 26 27 22 21 19 19 25 18 18 19 18 18 24 21 18 17 18 18 18 19 19 19 20 21 21 22 22 22 21 22 23 23 23 24 24 23 22 21 21 20
22 22 23 23 24 22 18 19 18 25 21 18 18 18 18 19 18 18 17 19 19 19 19 19 20 21 21 21 22 23 23 22 21 22 24 25 24 24 22 21 20 21 21 19
23 24 24 23 24 26 17 19 22 19 17 17 18 17 18 17 17 18 19 19 20 20 21 21 22 22 22 22 23 24 23 22 22 24 26 27 25 21 20 20 19 17 20 19
23 20 22 21 21 17 17 17 17 16 17 17 17 17 17 18 18 19 20 21 21 22 22 22 24 24 23 23 24 26 24 22 24 28 27 26 23 22 20 20 19 16 17 16
19 17 19 19 18 17 16 16 16 16 16 16 17 18 18 19 20 21 21 21 22 22 23 23 24 25 25 25 25 25 24 24 27 29 26 25 24 24 22 21 19 17 15 11
18 18 18 19 17 17 16 16 15 16 16 18 19 18 18 19 21 21 23 24 23 23 24 24 25 25 26 25 25 26 25 26 28 27 25 25 25 25 24 22 21 19 17 15
17 18 20 20 16 16 16 15 15 16 17 18 19 21 20 20 20 21 23 23 24 24 24 25 26 26 26 26 26 26 26 27 28 26 26 26 26 25 25 24 24 20 18 17